Regional Weather Roundup
Issued by NWS Kansas City/Pleasant Hill, MO

Home | Current Version | Previous Version | Graphics & Text | Print | Product List | Glossary Off
Versions: 1 2 3 4 5 6 7 8 9 10 11 12 13 14 15 16 17 18 19 20 21 22 23 24 25 26 27 28 29 30 31 32 33 34 35 36 37 38 39 40 41 42 43 44 45 46 47 48 49 50

000
ASUS43 KEAX 250010
RWREAX

WEATHER ROUNDUP FOR EASTERN KANSAS AND NORTHWEST MISSOURI
NATIONAL WEATHER SERVICE KANSAS CITY/PLEASANT HILL MO
700 PM CDT FRI MAR 24 2017

KSZ040-057-103>105-MOZ028-029-037-043-250100-
...KANSAS CITY METROPOLITAN AREA...

CITY           SKY/WX    TMP DP  RH WIND       PRES   REMARKS
K.C. INTL      CLOUDY    61  59  93 SE10      29.83F
6HR MIN TEMP:  58; 6HR MAX TEMP:  64; 6HR PCP:  0.04;

K.C. DOWNTOWN  CLOUDY    63  59  87 S6        29.83F
6HR MIN TEMP:  62; 6HR MAX TEMP:  67; 6HR PCP:  0.04;

LEES SUMMIT    CLOUDY    60  59  96 SE15      29.85S
6HR MIN TEMP:  60; 6HR MAX TEMP:  67; 6HR PCP:  0.27;

OLATHE - IXD   CLOUDY    62  57  83 SE13      29.82F
6HR MIN TEMP:  62; 6HR MAX TEMP:  67; 6HR PCP:  0.01;

OLATHE - OJC   CLOUDY    60  59  96 SE10      29.82F
6HR MIN TEMP:  60; 6HR MAX TEMP:  66; 6HR PCP:  0.01;

LAWRENCE       CLOUDY    65  58  78 E12       29.80S

$$

MOZ001>008-011>017-020>025-030>033-038>040-044>046-053-054-250100-
...NORTHERN AND CENTRAL MISSOURI...

CITY           SKY/WX    TMP DP  RH WIND       PRES   REMARKS
ST. JOSEPH     CLOUDY    58  58 100 E7        29.85S
6HR MIN TEMP:  58; 6HR MAX TEMP:  62; 6HR PCP:  0.05;

MOSBY          CLOUDY    59  59 100 SE5       29.85F
WARRENSBURG    RAIN      57  55  94 SE18      29.87F
WHITEMAN AFB   LGT RAIN  58  58 100 S12G22    29.88S FOG
6HR MIN TEMP:  58; 6HR MAX TEMP:  65; 6HR PCP:  0.52;

CLINTON        LGT RAIN  59  59 100 CALM      29.87F
SEDALIA        LGT RAIN  61  58  90 S9        29.92S
6HR MIN TEMP:  60; 6HR MAX TEMP:  70; 6HR PCP:  0.39;

WARSAW         NOT AVBL
CHILLICOTHE      N/A     57  57 100 SE7       29.90S
6HR MIN TEMP:  56; 6HR MAX TEMP:  65; 6HR PCP:  0.90;

KIRKSVILLE     LGT RAIN  56  56 100 S5        29.94R FOG
6HR MIN TEMP:  56; 6HR MAX TEMP:  60; 6HR PCP:  0.78;


$$

MOZ041-047>049-056>058-063>065-088>090-097-250100-
...EASTERN AND SOUTHERN MISSOURI...

CITY           SKY/WX    TMP DP  RH WIND       PRES   REMARKS
ST. LOUIS INTL CLOUDY    75  54  47 S14       29.96R
6HR MIN TEMP:  75; 6HR MAX TEMP:  81; 6HR PCP: TRACE;

SPIRIT OF STL  CLOUDY    73  54  51 S7        29.94R
COLUMBIA       CLOUDY    60  58  92 NW5       29.94R
JEFFERSON CITY CLOUDY    65  56  72 W7        29.93R
ROLLA          MOCLDY    69  53  56 S12       29.92S
OSAGE BEACH    CLOUDY   N/A N/A N/A CALM      29.92S
SPRINGFIELD    HVY RAIN  59  57  93 E7        29.88F FOG
BRANSON        LGT RAIN  59  59 100 E9        29.87F FOG
JOPLIN         CLOUDY    62  58  86 SE9G21    29.80F
WEST PLAINS    CLOUDY    71  55  56 S14       29.95R

$$

IAZ060-094-KSZ022-034>040-054-083-096-NEZ052-066-093-250100-
...KANSAS...SOUTHEAST NEBRASKA AND IOWA...

CITY           SKY/WX    TMP DP  RH WIND       PRES   REMARKS
TOPEKA         MOCLDY    65  58  78 E14       29.77F
6HR MIN TEMP:  65; 6HR MAX TEMP:  70; 6HR PCP: TRACE;

MANHATTAN      TSTM      62  54  74 N9        29.78S
EMPORIA        MOCLDY    66  56  70 SE6       29.77R
CHANUTE        CLOUDY    64  57  78 SE6       29.78R
WICHITA        LGT RAIN  62  59  90 NE12      29.74R
OMAHA          LGT RAIN  44  39  82 N16       29.97S
LINCOLN        CLOUDY    44  41  89 N18       29.96R
FALLS CITY     CLOUDY    53  52  96 NE13      29.86R
LAMONI         LGT RAIN  55  54  96 E7        29.89F FOG
DES MOINES     LGT RAIN  48  45  89 N13       29.97R FOG

$$




USA.gov is the U.S. government's official web portal to all federal, state and local government web resources and services.